When you browse on this site, cookies collect data to enhance your experience and personalize the content and advertising you see.
Visit our Privacy Policy to learn more. By continuing to use the site, you agree to this use of cookies and data.
  • în România
  • Lista ţărilor
  • Pe 7 zile
  • Temperatura apei
  • Hartă satelitară
  • Meteo pe hartă
  • Widget-uri
  • user-avatar
    Intrare

    Meteo pe oră la Kirkenes

    Astăzi, 16 Iulie, Marţi

    Timp Temperatura Precipitaţii Vânt Presiune Umiditate
    00:00 +7°C° 0 mm 3 m/s 749 mmHg 77%
    01:00 +7°C° 0 mm 2 m/s 749 mmHg 76%
    02:00 +7°C° 0 mm 2 m/s 749 mmHg 78%
    03:00 +7°C° 0 mm 2 m/s 749 mmHg 75%
    04:00 +8°C° 0 mm 2 m/s 749 mmHg 73%
    05:00 +8°C° 0 mm 2 m/s 749 mmHg 71%
    06:00 +9°C° 0 mm 2 m/s 749 mmHg 68%
    07:00 +9°C° 0 mm 2 m/s 750 mmHg 65%
    08:00 +10°C° 0 mm 3 m/s 750 mmHg 60%
    09:00 +11°C° 0 mm 4 m/s 750 mmHg 58%
    10:00 +12°C° 0 mm 4 m/s 750 mmHg 56%
    11:00 +12°C° 0 mm 4 m/s 750 mmHg 55%
    12:00 +12°C° 0 mm 5 m/s 750 mmHg 57%
    13:00 +10°C° 0 mm 5 m/s 750 mmHg 59%
    14:00 +8°C° 0 mm 5 m/s 750 mmHg 66%
    15:00 +8°C° 0 mm 5 m/s 750 mmHg 69%
    16:00 +7°C° 0 mm 5 m/s 750 mmHg 73%
    17:00 +7°C° 0 mm 6 m/s 750 mmHg 76%
    18:00 +7°C° 0 mm 5 m/s 750 mmHg 80%
    19:00 +6°C° 0 mm 5 m/s 750 mmHg 84%
    20:00 +6°C° 0 mm 5 m/s 750 mmHg 89%
    21:00 +6°C° 0.1 mm 5 m/s 750 mmHg 90%
    22:00 +6°C° 0.1 mm 4 m/s 750 mmHg 91%
    23:00 +6°C° 0.1 mm 4 m/s 749 mmHg 92%

    Mâine, 17 Iulie, Miercuri

    Timp Temperatura Precipitaţii Vânt Presiune Umiditate
    00:00 +5°C° 0.3 mm 4 m/s 749 mmHg 92%
    01:00 +5°C° 0.3 mm 4 m/s 749 mmHg 93%
    02:00 +5°C° 0.3 mm 4 m/s 749 mmHg 93%
    03:00 +5°C° 0.3 mm 3 m/s 749 mmHg 93%
    04:00 +5°C° 0.3 mm 3 m/s 748 mmHg 93%
    05:00 +6°C° 0.3 mm 2 m/s 748 mmHg 93%
    06:00 +6°C° 0.4 mm 2 m/s 748 mmHg 93%
    07:00 +6°C° 0.4 mm 2 m/s 748 mmHg 93%
    08:00 +7°C° 0.4 mm 3 m/s 747 mmHg 93%
    09:00 +7°C° 0.1 mm 3 m/s 747 mmHg 92%
    10:00 +7°C° 0.1 mm 4 m/s 747 mmHg 90%
    11:00 +7°C° 0.1 mm 5 m/s 747 mmHg 89%
    12:00 +7°C° 0.1 mm 5 m/s 747 mmHg 89%
    13:00 +8°C° 0.1 mm 5 m/s 747 mmHg 88%
    14:00 +8°C° 0.1 mm 5 m/s 747 mmHg 88%
    15:00 +8°C° 0.2 mm 4 m/s 747 mmHg 88%
    16:00 +8°C° 0.2 mm 4 m/s 747 mmHg 87%
    17:00 +9°C° 0.2 mm 3 m/s 747 mmHg 87%
    18:00 +9°C° 0 mm 3 m/s 747 mmHg 87%
    19:00 +9°C° 0 mm 2 m/s 747 mmHg 87%
    20:00 +9°C° 0 mm 2 m/s 747 mmHg 87%
    21:00 +8°C° 0.2 mm 2 m/s 747 mmHg 89%
    22:00 +8°C° 0.2 mm 2 m/s 747 mmHg 90%
    23:00 +8°C° 0.2 mm 2 m/s 747 mmHg 91%

    Poimâine, 18 Iulie, Joi

    Timp Temperatura Precipitaţii Vânt Presiune Umiditate
    00:00 +7°C° 0.1 mm 2 m/s 747 mmHg 91%
    01:00 +7°C° 0.1 mm 2 m/s 747 mmHg 90%
    02:00 +7°C° 0.1 mm 2 m/s 747 mmHg 90%
    03:00 +7°C° 0.2 mm 2 m/s 748 mmHg 89%
    04:00 +8°C° 0.2 mm 2 m/s 748 mmHg 89%
    05:00 +8°C° 0.2 mm 2 m/s 748 mmHg 88%
    06:00 +9°C° 0 mm 2 m/s 748 mmHg 84%
    07:00 +10°C° 0 mm 3 m/s 749 mmHg 79%
    08:00 +11°C° 0 mm 3 m/s 749 mmHg 74%
    09:00 +13°C° 0 mm 3 m/s 749 mmHg 68%
    10:00 +14°C° 0 mm 3 m/s 749 mmHg 61%
    11:00 +16°C° 0 mm 3 m/s 750 mmHg 55%
    12:00 +17°C° 0 mm 3 m/s 750 mmHg 51%
    13:00 +18°C° 0 mm 3 m/s 750 mmHg 47%
    14:00 +19°C° 0 mm 3 m/s 750 mmHg 44%
    15:00 +19°C° 0 mm 2 m/s 750 mmHg 45%
    16:00 +19°C° 0 mm 2 m/s 750 mmHg 45%
    17:00 +18°C° 0 mm 2 m/s 750 mmHg 46%
    18:00 +18°C° 0 mm 2 m/s 750 mmHg 53%
    19:00 +17°C° 0 mm 2 m/s 751 mmHg 60%
    20:00 +16°C° 0 mm 3 m/s 751 mmHg 66%
    21:00 +14°C° 0 mm 2 m/s 751 mmHg 72%
    22:00 +13°C° 0 mm 2 m/s 751 mmHg 78%
    23:00 +11°C° 0 mm 1 m/s 751 mmHg 83%

    19 Iulie, Vineri

    Timp Temperatura Precipitaţii Vânt Presiune Umiditate
    00:00 +11°C° 0 mm 1 m/s 751 mmHg 84%
    01:00 +11°C° 0 mm 1 m/s 751 mmHg 85%
    02:00 +10°C° 0 mm 1 m/s 751 mmHg 86%
    03:00 +12°C° 0 mm 1 m/s 752 mmHg 82%
    04:00 +13°C° 0 mm 1 m/s 752 mmHg 78%
    05:00 +15°C° 0 mm 2 m/s 752 mmHg 73%
    06:00 +16°C° 0 mm 2 m/s 752 mmHg 69%
    07:00 +17°C° 0 mm 3 m/s 752 mmHg 64%
    08:00 +18°C° 0 mm 4 m/s 752 mmHg 59%
    09:00 +19°C° 0 mm 4 m/s 752 mmHg 57%
    10:00 +20°C° 0 mm 4 m/s 752 mmHg 54%
    11:00 +21°C° 0 mm 4 m/s 752 mmHg 51%
    12:00 +21°C° 0.2 mm 4 m/s 752 mmHg 53%
    13:00 +21°C° 0.2 mm 4 m/s 752 mmHg 54%
    14:00 +21°C° 0.2 mm 4 m/s 751 mmHg 55%
    15:00 +21°C° 0.3 mm 4 m/s 751 mmHg 56%
    16:00 +21°C° 0.3 mm 4 m/s 751 mmHg 57%
    17:00 +20°C° 0.3 mm 3 m/s 751 mmHg 58%
    18:00 +20°C° 0.1 mm 3 m/s 751 mmHg 61%
    19:00 +19°C° 0.1 mm 3 m/s 751 mmHg 64%
    20:00 +19°C° 0.1 mm 3 m/s 751 mmHg 68%
    21:00 +17°C° 0 mm 3 m/s 751 mmHg 73%
    22:00 +15°C° 0 mm 2 m/s 751 mmHg 78%
    23:00 +14°C° 0 mm 2 m/s 751 mmHg 83%

    20 Iulie, Sâmbătă

    Timp Temperatura Precipitaţii Vânt Presiune Umiditate
    00:00 +13°C° 0 mm 2 m/s 751 mmHg 83%
    01:00 +13°C° 0 mm 2 m/s 751 mmHg 83%
    02:00 +12°C° 0 mm 1 m/s 751 mmHg 84%
    03:00 +13°C° 0 mm 1 m/s 751 mmHg 79%
    04:00 +14°C° 0 mm 2 m/s 751 mmHg 75%
    05:00 +15°C° 0 mm 2 m/s 751 mmHg 71%
    06:00 +16°C° 0 mm 2 m/s 751 mmHg 67%
    07:00 +17°C° 0 mm 2 m/s 751 mmHg 63%
    08:00 +18°C° 0 mm 2 m/s 751 mmHg 58%
    09:00 +19°C° 0 mm 2 m/s 751 mmHg 55%
    10:00 +20°C° 0 mm 2 m/s 751 mmHg 52%
    11:00 +21°C° 0 mm 2 m/s 751 mmHg 49%
    12:00 +21°C° 0 mm 2 m/s 751 mmHg 48%
    13:00 +23°C° 0 mm 1 m/s 751 mmHg 46%
    14:00 +23°C° 0 mm 1 m/s 751 mmHg 45%
    15:00 +23°C° 0 mm 1 m/s 751 mmHg 44%
    16:00 +24°C° 0 mm 1 m/s 751 mmHg 44%
    17:00 +24°C° 0 mm 1 m/s 751 mmHg 43%
    18:00 +23°C° 0 mm 2 m/s 751 mmHg 48%
    19:00 +21°C° 0 mm 2 m/s 751 mmHg 53%
    20:00 +20°C° 0 mm 3 m/s 751 mmHg 58%
    21:00 +18°C° 0 mm 3 m/s 751 mmHg 62%
    22:00 +17°C° 0 mm 2 m/s 751 mmHg 65%
    23:00 +15°C° 0 mm 2 m/s 751 mmHg 68%

    21 Iulie, Duminică

    Timp Temperatura Precipitaţii Vânt Presiune Umiditate
    00:00 +14°C° 0 mm 2 m/s 751 mmHg 69%
    01:00 +14°C° 0 mm 1 m/s 751 mmHg 70%
    02:00 +13°C° 0 mm 1 m/s 751 mmHg 70%
    03:00 +15°C° 0 mm 1 m/s 751 mmHg 67%
    04:00 +16°C° 0 mm 2 m/s 752 mmHg 64%
    05:00 +17°C° 0 mm 2 m/s 752 mmHg 61%
    06:00 +18°C° 0 mm 2 m/s 752 mmHg 60%
    07:00 +18°C° 0 mm 2 m/s 752 mmHg 59%
    08:00 +19°C° 0 mm 2 m/s 752 mmHg 58%
    09:00 +20°C° 0 mm 2 m/s 752 mmHg 55%
    10:00 +21°C° 0 mm 2 m/s 752 mmHg 53%
    11:00 +23°C° 0 mm 2 m/s 752 mmHg 51%
    12:00 +24°C° 0 mm 2 m/s 752 mmHg 49%
    13:00 +24°C° 0 mm 2 m/s 752 mmHg 47%
    14:00 +25°C° 0 mm 2 m/s 752 mmHg 45%
    15:00 +25°C° 0 mm 2 m/s 752 mmHg 46%
    16:00 +25°C° 0 mm 2 m/s 752 mmHg 48%
    17:00 +25°C° 0 mm 2 m/s 752 mmHg 49%
    18:00 +24°C° 0 mm 2 m/s 752 mmHg 54%
    19:00 +23°C° 0 mm 2 m/s 752 mmHg 59%
    20:00 +21°C° 0 mm 2 m/s 752 mmHg 63%
    21:00 +19°C° 0 mm 2 m/s 752 mmHg 67%
    22:00 +19°C° 0 mm 1 m/s 752 mmHg 72%
    23:00 +16°C° 0 mm 1 m/s 753 mmHg 76%
    Arată mai mult